Theta_e
351 332 335 335 336 336 338 334 331 331 330 332 336 338 339 337 335 339 345 346 347 349 349 348 348 348 348 346 345 344 343 343 344 343 340 339 338 337 337 338 338 339 337
337 335 338 337 337 337 337 330 332 333 333 334 339 340 339 337 340 343 344 346 346 346 347 348 348 346 345 344 344 343 343 342 342 340 340 336 335 338 339 339 339 338 336
341 342 343 342 339 337 332 334 337 339 339 339 337 340 342 338 339 343 342 344 346 346 347 347 346 345 345 344 343 343 343 341 339 337 337 336 338 339 339 340 338 337 335
350 350 346 343 337 337 338 339 342 346 346 339 335 336 342 341 337 340 342 342 344 345 345 344 343 342 341 340 341 341 339 337 337 338 338 337 339 339 339 339 339 337 334
352 353 354 351 344 345 348 347 348 349 347 341 338 336 334 336 335 340 342 342 343 341 339 339 338 335 335 336 337 336 336 336 336 336 338 337 338 338 338 338 338 334 329
334 346 351 352 350 345 343 344 348 346 342 340 339 337 334 335 335 340 341 340 339 339 339 335 335 336 336 336 336 337 337 334 332 337 337 336 337 336 336 336 333 327 326
339 334 351 349 348 341 343 347 348 344 342 341 340 329 333 336 335 340 339 338 337 338 335 335 336 335 335 335 335 336 333 333 334 334 335 335 335 335 334 333 329 328 328
339 343 340 337 346 346 347 347 346 346 343 340 336 330 330 336 337 341 340 339 337 336 335 336 336 335 332 334 333 333 333 334 334 333 333 333 333 334 332 330 329 328 329
344 344 345 345 344 343 341 340 341 339 339 339 337 331 334 336 335 338 340 337 335 335 334 336 335 335 335 334 334 333 332 333 334 333 332 331 332 333 331 330 329 329 331
339 339 339 339 338 339 338 337 334 336 339 338 337 332 330 332 334 336 339 337 334 334 335 333 333 332 332 333 334 333 330 331 333 333 334 334 332 331 332 331 331 330 330
338 337 336 336 336 336 335 336 336 338 336 337 337 334 326 333 335 336 336 335 335 332 334 333 333 332 332 332 333 333 330 331 331 332 333 333 334 334 332 332 332 329 329
335 336 336 335 333 332 333 335 334 336 338 336 337 335 328 331 335 336 335 336 336 333 333 334 332 331 331 331 334 331 329 331 331 330 331 332 332 334 334 333 331 330 329
336 336 334 333 335 334 333 334 334 334 336 335 335 336 332 333 336 337 336 332 331 334 333 333 332 331 331 331 333 332 332 332 331 331 330 330 328 330 331 331 331 332 330
337 333 333 332 333 333 334 335 334 334 335 334 334 336 333 334 335 335 336 336 336 336 334 333 333 333 331 332 333 332 332 330 331 331 329 327 325 326 328 329 329 330 331
333 333 333 333 333 334 335 335 333 333 334 334 335 335 334 335 334 334 336 337 336 336 336 334 333 333 334 332 332 331 331 331 331 331 330 330 330 329 327 325 326 328 330
334 333 333 334 336 335 335 334 333 333 330 332 332 333 334 334 335 335 334 336 336 334 334 333 332 333 333 333 332 331 331 330 331 331 329 331 329 328 328 327 325 324 324
331 333 334 333 334 334 334 334 334 333 333 333 334 333 333 332 334 334 333 334 336 336 335 334 334 333 332 332 331 330 330 329 329 330 331 330 328 326 326 326 326 325 325
332 332 332 334 334 334 335 335 334 335 332 329 332 334 333 333 333 335 332 332 332 334 335 334 333 333 332 332 331 330 330 330 330 328 328 328 327 326 326 326 324 325 325
331 331 333 334 334 334 335 335 335 335 331 333 333 334 331 332 333 333 333 331 329 331 334 334 334 333 333 333 332 331 331 331 330 326 325 324 322 324 324 323 324 323 326
330 332 334 333 333 332 330 330 335 335 334 335 334 334 334 334 333 333 332 329 328 328 329 331 332 333 333 332 331 331 331 330 329 330 330 328 326 324 324 324 323 322 323
330 330 332 332 333 331 329 330 334 334 334 333 333 333 332 331 331 333 332 331 329 328 327 329 330 331 331 331 330 331 331 329 328 328 326 325 325 326 326 325 325 325 323
327 327 329 330 333 332 332 332 333 332 330 329 330 331 331 330 331 332 332 332 331 329 327 328 330 329 327 330 332 331 329 330 329 327 325 324 323 324 325 323 323 323 323
324 325 326 328 329 331 331 330 330 330 329 329 329 331 332 332 330 331 330 329 330 330 329 328 330 328 329 328 326 326 327 327 326 326 325 324 325 324 324 324 325 325 326
321 323 324 326 326 328 329 329 329 329 329 328 330 332 332 332 331 331 330 331 332 331 330 329 328 327 327 327 327 328 325 326 327 330 330 329 328 327 326 330 329 327 328
317 319 321 322 323 324 325 325 326 326 326 327 327 327 328 329 330 329 329 329 330 331 330 330 329 328 328 327 327 329 327 327 327 329 329 330 330 329 329 328 327 326 327
313 313 315 317 317 318 319 319 320 320 320 320 321 323 324 325 325 325 325 325 326 327 328 328 328 329 328 328 327 327 327 326 327 325 325 325 325 327 328 328 328 325 326
Wind_Speed
27 28 22 18 16 15 15 14 14 14 16 18 19 21 23 25 26 28 32 34 35 34 33 32 33 34 37 36 35 33 35 36 33 30 30 26 30 33 32 33 28 28 26
23 21 18 17 15 14 14 15 16 17 15 18 21 24 24 25 25 24 25 28 31 35 34 31 30 30 31 31 30 30 31 34 32 32 31 31 31 28 29 32 33 28 22
18 18 18 17 15 14 15 17 19 21 22 20 22 23 23 25 27 26 26 27 27 28 27 26 26 24 25 26 26 25 26 26 28 31 30 26 29 26 33 34 31 29 26
12 14 16 18 15 14 16 20 24 26 28 27 24 23 27 29 28 28 27 24 20 17 18 19 21 21 22 22 23 24 23 23 23 24 28 25 28 31 26 33 36 35 28
21 32 20 23 18 17 22 26 29 33 33 29 29 27 30 31 28 26 23 22 21 19 18 19 16 14 14 15 18 21 19 18 18 25 30 34 33 25 32 35 34 32 29
44 29 31 25 22 24 26 30 33 34 31 29 27 34 39 32 26 23 20 17 16 17 14 12 10 7 6 7 5 7 11 10 7 12 30 28 23 28 27 30 34 28 29
17 28 23 25 28 26 39 33 32 32 29 28 19 19 41 42 27 25 20 19 20 16 13 11 10 8 8 9 8 10 9 5 6 7 9 15 18 20 24 29 30 36 33
13 17 10 19 23 22 28 32 32 33 32 33 36 39 28 36 34 29 23 19 20 16 14 11 13 12 11 9 10 10 8 7 8 6 6 9 14 21 25 27 31 30 25
16 17 17 20 23 26 28 29 30 35 37 36 31 24 30 32 32 27 25 21 20 18 16 14 12 14 13 13 13 10 9 10 9 8 7 8 11 19 25 31 29 29 24
26 27 29 31 33 35 37 38 38 35 34 30 29 26 22 32 30 26 26 26 23 21 17 17 15 12 10 11 14 15 14 13 13 14 12 12 14 19 24 27 27 30 27
32 35 34 33 34 35 36 35 35 34 31 29 29 30 25 23 26 27 24 27 26 25 25 23 19 13 12 10 13 20 18 14 14 12 12 14 17 21 24 26 25 25 28
32 34 36 38 38 39 39 38 39 36 30 30 31 31 29 25 23 26 22 20 22 26 29 26 21 14 15 14 19 23 22 19 16 16 17 17 19 22 24 24 24 25 21
31 33 39 40 39 39 39 38 37 31 28 30 28 27 24 21 21 19 18 18 17 24 23 26 23 18 13 17 21 24 20 21 21 20 19 19 16 16 20 26 26 19 23
31 36 39 39 41 40 38 37 33 30 27 26 24 23 19 18 18 18 19 22 23 26 29 22 24 20 16 16 21 24 23 21 23 24 19 17 17 18 20 27 29 26 25
34 35 39 40 37 37 35 36 31 26 21 19 18 15 19 20 19 17 14 22 23 25 28 27 24 24 21 23 24 24 25 23 24 27 25 23 21 20 21 23 26 29 29
33 38 36 35 34 36 35 32 25 19 18 18 22 21 21 18 15 15 9 15 18 21 27 27 27 25 24 26 28 28 27 26 27 29 27 23 20 26 26 26 27 26 24
32 31 34 34 32 29 30 28 30 24 20 17 14 15 15 16 14 15 9 9 15 19 25 28 28 27 27 28 29 30 29 28 26 28 29 27 23 19 20 27 27 28 27
29 30 31 36 32 31 30 27 22 20 27 22 17 9 12 17 15 15 14 14 17 21 25 27 29 27 25 26 29 30 29 24 24 27 31 32 31 26 22 18 24 27 28
27 29 29 32 29 27 25 26 20 17 6 17 12 11 9 13 13 15 17 16 18 21 24 27 26 27 26 27 26 29 28 26 27 26 25 25 25 31 27 25 26 24 23
24 23 26 26 22 20 23 23 19 15 12 7 5 8 10 8 16 20 22 20 20 20 20 22 22 22 24 22 24 25 27 26 26 27 30 30 30 28 27 28 26 25 27
23 25 24 24 23 19 23 22 19 15 15 13 12 10 5 8 8 23 25 24 23 22 22 23 24 22 21 21 20 24 26 26 27 28 25 26 28 32 33 33 30 31 32
20 24 21 18 20 21 20 19 17 14 12 13 13 14 9 7 10 17 25 28 28 27 25 22 20 19 20 26 24 22 23 27 31 30 29 28 30 30 32 31 31 31 30
23 24 22 20 19 18 17 18 16 16 16 15 15 7 8 8 6 13 20 29 31 29 31 31 28 21 19 25 27 32 31 28 27 27 29 31 31 31 32 33 35 35 31
24 24 23 22 21 18 15 15 15 16 15 18 18 14 10 5 7 9 13 15 14 32 25 24 28 32 24 19 15 28 29 30 30 27 29 31 34 33 31 33 34 33 33
24 24 24 24 22 21 20 18 16 15 16 17 16 14 14 10 2 4 6 6 9 16 19 25 25 22 24 22 16 15 22 23 26 24 23 21 27 28 28 33 35 37 35
28 29 24 25 27 27 26 25 23 21 19 17 16 14 13 13 13 13 11 10 7 5 2 3 4 10 14 19 15 19 22 22 26 22 23 22 29 33 33 31 32 36 40
Wind_Direction
215 210 209 211 220 230 240 255 267 274 274 273 277 279 278 280 280 272 268 270 270 271 273 274 269 268 266 263 260 254 257 253 251 247 255 255 253 255 252 249 236 213 202
218 218 219 214 218 235 255 268 273 275 283 283 282 279 281 286 281 275 269 269 269 270 273 271 272 270 268 263 260 255 256 252 254 263 263 262 257 255 247 231 204 193 212
220 223 233 237 232 238 257 273 278 279 281 283 288 283 287 288 283 278 273 271 274 274 271 268 267 262 260 260 259 256 250 254 257 261 261 257 256 242 228 212 212 199 201
267 267 262 256 264 267 270 274 278 279 280 280 284 291 287 288 286 281 275 275 273 263 259 262 262 264 265 261 254 249 248 256 255 253 251 247 225 200 209 204 196 195 197
282 272 265 269 271 273 274 273 272 270 277 286 292 300 297 287 283 278 270 263 261 260 259 265 268 261 258 252 254 251 246 246 252 246 244 218 203 200 202 200 207 198 185
285 253 255 267 266 275 274 270 271 275 284 292 303 307 300 288 283 276 266 252 253 252 257 253 240 218 204 175 181 175 194 213 258 233 218 230 219 189 206 205 196 183 177
266 237 242 257 270 289 277 276 270 277 283 274 273 299 292 299 285 273 260 259 252 245 234 216 202 201 189 168 171 149 159 211 218 257 206 200 199 195 192 191 185 177 177
299 308 285 281 284 286 276 278 281 282 284 281 292 298 289 287 290 270 259 252 242 232 214 213 202 211 207 189 166 154 170 168 152 154 196 207 199 185 186 180 174 177 174
326 322 317 305 302 299 298 299 297 292 294 295 295 314 294 285 284 262 257 248 226 216 218 202 201 206 202 185 183 174 180 176 167 161 153 161 180 185 178 178 179 178 180
319 316 311 308 306 305 304 302 304 301 300 292 282 288 296 276 279 263 251 243 223 217 201 193 183 185 187 187 192 197 198 188 181 173 176 183 178 181 183 187 181 185 183
320 316 315 318 319 317 314 311 308 303 294 287 278 289 287 267 271 270 254 246 222 217 206 198 196 207 211 201 195 203 204 198 196 196 194 192 194 195 196 200 203 196 188
322 320 321 322 323 324 318 309 308 301 289 280 278 276 279 279 271 261 255 234 222 215 215 210 206 210 216 213 203 199 195 207 209 197 196 192 190 193 197 198 198 202 199
318 319 319 323 320 324 322 317 315 298 288 279 271 275 279 283 266 249 239 218 221 215 216 210 205 214 224 215 201 197 195 198 201 192 197 197 197 196 193 186 184 196 204
312 320 320 321 321 321 322 321 314 302 287 275 272 274 274 286 268 251 225 227 229 222 213 210 214 219 219 212 206 196 195 197 198 196 195 187 187 193 197 196 197 205 215
319 322 322 321 321 321 325 321 316 306 294 273 279 264 281 280 256 250 251 229 228 223 214 210 216 226 220 207 201 201 203 201 197 198 197 201 209 210 201 202 211 219 223
327 325 328 330 325 326 325 321 313 309 299 280 273 268 270 272 262 241 263 232 234 215 209 214 221 216 208 207 205 204 204 203 201 200 204 210 225 219 218 214 208 211 215
328 329 332 329 331 326 329 320 314 321 311 291 273 274 269 255 247 228 237 228 216 204 212 215 216 220 217 215 214 211 210 208 209 214 212 215 216 213 223 222 224 225 226
330 328 335 334 330 327 328 322 316 308 309 302 277 293 255 245 233 214 207 227 216 214 216 216 217 220 216 217 215 217 216 216 218 219 218 220 220 217 218 217 227 227 230
328 332 341 343 341 334 330 339 332 325 293 305 282 263 288 235 225 219 217 229 223 216 216 220 218 218 220 222 220 221 224 222 212 212 211 214 220 226 231 234 233 235 241
339 346 351 350 340 346 340 343 346 351 333 324 289 284 300 271 223 221 219 218 224 222 221 222 215 218 217 215 217 220 222 222 220 226 229 227 225 222 224 229 234 243 236
357 346 343 351 355 346 355 359 356 9 3 10 11 4 337 267 274 243 235 228 229 231 226 224 226 224 215 213 217 222 224 222 226 226 224 226 226 224 228 234 234 237 240
346 344 354 359 2 3 1 4 11 17 17 10 5 2 5 327 279 248 238 243 246 243 235 227 227 230 229 221 221 227 234 234 226 224 229 235 236 230 229 237 243 244 247
8 7 7 8 9 11 11 10 13 17 11 13 6 348 344 339 312 272 258 251 250 248 243 232 226 234 234 240 238 231 230 233 231 232 234 240 238 235 242 244 245 245 249
12 13 12 13 16 15 12 10 13 15 18 19 26 18 8 355 327 285 263 268 245 226 224 236 232 233 238 238 243 235 239 235 231 224 230 237 242 244 243 237 240 247 244
16 21 20 24 24 23 21 16 11 13 17 16 34 29 27 7 36 112 116 142 145 163 206 219 205 207 219 224 225 229 230 228 230 229 229 237 236 236 242 242 236 246 252
22 27 27 29 34 35 37 37 33 29 28 30 40 41 38 31 23 22 42 45 40 55 189 279 164 215 238 251 269 268 262 258 251 260 259 267 269 254 254 250 254 256 248